ASTRA 1G
1 25071U 97076A   03049.00000000  .00000116  00000-0  10000-3 0  3929
2 25071   0.0122 319.8851 0002995  65.1991 141.6317  1.00273184 19136
INMARSAT 3-F5
1 25153U 98006B   03048.86035646  .00000137  00000-0  10000-3 0  8457
2 25153   0.4669 353.3720 0002887 334.6501 154.0648  1.00272771 18490
HOT BIRD 4
1 25237U 98013A   03046.86592034  .00000087  00000-0  10000-3 0  3274
2 25237   0.0260 352.7650 0007523 278.3668 199.0858  1.00273279 18510
NOAA 15
1 25338U 98030A   03049.87926809  .00000259  00000-0  13061-3 0    98
2 25338  98.5500  72.0211 0010102 320.9885  39.0565 14.24245784247846
RESURS O1-N4
1 25394U 98043A   03049.56564673  .00000171  00000-0  93422-4 0  4511
2 25394  98.6312 127.4945 0002347 101.6238 258.5205 14.23878363239537
TMSAT
1 25396U 98043C   03050.51986494 -.00000043  00000-0  00000+0 0  8247
2 25396  98.6274 127.6098 0003770 124.1545 235.9993 14.23511162239667
TECHSAT 1B
1 25397U 98043D   03043.93235492 +.00000084 +00000-0 +56371-4 0 01335
2 25397 098.6224 120.0366 0001678 133.8159 226.3156 14.22958555238698
ASTRA 2A
1 25462U 98050A   03049.00000000  .00000146  00000-0  00000+0 0  5320
2 25462   0.0385 308.7109 0004824 280.8620 306.1755  1.00272094 16435
EUTELSAT W2
1 25491U 98056A   03046.86653737  .00000104  00000-0  00000+0 0  5795
2 25491   0.0149 115.2307 0003737 184.6991 173.4544  1.00271191 16023
HOT BIRD 5
1 25495U 98057A   03042.93716436  .00000165  00000-0  00000+0 0  5001
2 25495   0.0310 255.9940 0003377  65.4663 190.5501  1.00272693 15956
SEDSAT 1
1 25509U 98061B   03050.35047537  .00000955  00000-0  17903-3 0  7830
2 25509  31.4306 148.7509 0358145 309.6056  47.3506 14.27438028225428
PAN SAT
1 25520U 98064B   03046.92234715  .00003417  00000-0  17369-3 0  6381
2 25520  28.4593 241.4854 0005372 319.6173  40.4028 15.13876265237185
ISS (ZARYA)
1 25544U 98067A   03050.55039097  .00028468  00000-0  36886-3 0  7064
2 25544  51.6324 251.0580 0012257 221.8698 248.1451 15.58559398242659
ORSTED
1 25635U 99008B   03050.01296597  .00001398  00000-0  36149-3 0  8350
2 25635  96.4503  36.1384 0144991 328.3727  30.8813 14.44848253210004
SUNSAT
1 25636U 99008C   03047.22086017  .00000749  00000-0  20397-3 0  6641
2 25636  96.4524  32.6766 0149241 343.5862  16.0528 14.42954554209473
UOSAT 12
1 25693U 99021A   03050.36297434  .00000730  00000-0  12425-3 0  7177
2 25693  64.5594   8.3551 0020430 316.2188  43.7295 14.76393434206372
FENGYUN 1C
1 25730U 99025A   03050.22009831  .00000051  00000-0  51115-4 0  7705
2 25730  98.6338  74.5951 0014403   4.7956 355.3352 14.11734656194727
ASTRA 1H
1 25785U 99033A   03049.00000000  .00000116  00000-0  10000-3 0  3724
2 25785   0.0122 319.8851 0002995  65.1991 141.6651  1.00273184 13492
TERRA
1 25994U 99068A   03050.27411353  .00000564  00000-0  13520-3 0  7116
2 25994  98.2006 126.4871 0000985  64.3892 295.7408 14.57134280168778
JAWSAT
1 26061U 00004A   03049.85742964  .00000677  00000-0  24278-3 0  7680
2 26061 100.2078 106.9805 0034660 278.5853  81.1398 14.37827610160579
OPAL
1 26063U 00004C   03050.18255638  .00000196  00000-0  88127-4 0  7249
2 26063 100.2130 104.8749 0036857 285.5544  74.1564 14.35482296160470
ASUSAT
1 26065U 00004E   03050.55761384  .00000232  00000-0  10053-3 0  7379
2 26065 100.2108 105.4655 0036938 285.3285  74.3814 14.35510385160527
GOES 11
1 26352U 00022A   03049.53212903 -.00000038  00000-0  10000-3 0   282
2 26352   0.1392 103.7245 0003457 224.9109 257.5849  1.00265533 10234
EUTELSAT W4
1 26369U 00028A   03049.96195201  .00000150  00000-0  00000+0 0  3534
2 26369   0.0345 349.9386 0003063 332.0141 208.9102  1.00271808 10053
FENGYUN 2B
1 26382U 00032A   03048.60410181 -.00000333  00000-0  00000+0 0  7966
2 26382   0.5757 287.7861 0001383 219.9433 321.3092  1.00276927  9702
EUTELSAT W1
1 26487U 00052A   03049.87196976  .00000063  00000-0  10000-3 0  3574
2 26487   0.0160 269.8498 0003911  57.9999 144.4206  1.00274574  9026
ASTRA 2B
1 26494U 00054A   03049.00000000  .00000146  00000-0  00000+0 0  2555
2 26494   0.0178 354.5658 0005000 302.8402 238.2911  1.00276704  8914
NOAA 16
1 26536U 00055A   03049.86534425  .00000007  00000-0  28270-4 0  2123
2 26536  98.9028 358.1462 0009975 308.4939  51.5337 14.11903835124191
SAUDISAT 1A
1 26545U 00057A   03048.80198816  .00001614  00000-0  23240-3 0  4137
2 26545  64.5593  34.2792 0052222 238.8375 120.7602 14.78985194129109
UNISAT
1 26547U 00057C   03049.19427614  .00002699  00000-0  36640-3 0  4326
2 26547  64.5573  35.3085 0059321 240.9626 118.5487 14.79755787129139
TIUNGSAT 1
1 26548U 00057D   03050.04093145  .00001754  00000-0  23906-3 0  4176
2 26548  64.5581  23.3546 0045278 238.0922 121.5724 14.81278907129439
SAUDISAT 1B
1 26549U 00057E   03050.46150439  .00001422  00000-0  21149-3 0  6961
2 26549  64.5512  33.2956 0056463 238.8778 120.6775 14.77926519129276
AMSAT OSCAR 40
1 26609U 00072B   03046.24037137 -.00000118  00000-0  10000-3 0  3115
2 26609   8.0800  64.6767 7942000 144.0329 312.8612  1.25596569 10543
GOES 12
1 26871U 01031A   03050.45925469 -.00000174  00000-0  10000-3 0  8267
2 26871   0.3224 276.7505 0003335   8.5884 294.7909  1.00361482  5848
PCSAT
1 26931U 01043C   03050.15506298  .00000200  00000-0  11133-3 0  4059
2 26931  67.0473 254.1055 0005014 266.3831  93.6696 14.29116142 72437
SAPPHIRE
1 26932U 01043D   03050.55288746  .00000171  00000-0  99446-4 0  4005
2 26932  67.0539 252.7858 0004840 242.0659 117.9953 14.29295534 72519
ENVISAT
1 27386U 02009A   03050.52311127 -.00000651  00000-0 -22542-3 0  9539
2 27386  98.5442 119.0538 0000848  95.7656 264.3626 14.32241543 50884
IDEFIX/ARIANE 42P
1 27422U 02021B   03049.88269962  .00000292  00000-0  13535-3 0  2365
2 27422  98.6946 129.0831 0013094 146.1865 214.0151 14.27971082 41508
FENGYUN 1D
1 27431U 02024B   03050.23366041  .00000100  00000-0  82087-4 0  2182
2 27431  98.7701  99.1986 0016110 121.1033 239.1720 14.09179759 39461
NOAA 17
1 27453U 02032A   03049.91711594  .00000303  00000-0  15315-3 0  3089
2 27453  98.7560 121.1267 0011758   0.2086 359.9094 14.23294437 34012
HOT BIRD 6
1 27499U 02038A   03047.86842035  .00000084  00000-0  10000-3 0   687
2 27499   0.0734 296.2656 0009015  74.9399 100.7717  1.00273159  1810
RUBIN 2
1 27605U 02058A   03049.91988211  .00001574  00000-0  27263-3 0   621
2 27605  64.5514 196.1692 0035532 113.1583 247.3266 14.71377552  8865
